Location: Chrome
(40.5765°N, 74.2163°W)
Time: 12:53:00
(UTC+00:00)

CSL-04 Rocket - Pass Details

Date: 06 December 2019
Orbit: 807 x 859 km, 99.0° (Epoch: 16 January)

Event Time Altitude Azimuth Distance (km) Brightness Sun altitude
Rises 22:35:22 0° 135° (SE) 3,315 6.5 -12.2°
Reaches altitude 10° 22:37:57 10° 125° (SE) 2,386 5.7 -12.6°
Maximum altitude 22:42:27 30° 66° (ENE) 1,428 4.3 -13.4°
Drops below altitude 10° 22:46:58 10° 7° (N) 2,400 5.8 -14.3°
Sets 22:49:34 0° 357° (N) 3,339 6.7 -14.7°
